Temperature
23 22 22 21 20 19 22 23 24 24 24 24 25 24 23 22 21 21 20 21 20 20 19 19 19 19 19 19 19 19 19 19 19 19 19 19 19 19 18 18 18 18 18 18 18 18 18 18 18
23 22 22 21 20 21 22 23 24 24 24 24 24 23 22 20 20 20 20 20 20 20 20 20 19 20 19 19 19 19 19 19 19 19 19 19 19 19 18 18 18 18 18 18 18 18 18 18 18
23 22 22 19 20 21 23 24 24 24 25 25 24 23 21 20 20 20 21 20 20 20 20 20 20 20 20 20 19 19 19 19 19 19 19 19 19 18 18 18 18 18 18 18 18 18 18 18 18
22 22 21 19 22 22 23 24 24 24 25 24 23 22 21 21 21 22 21 20 20 20 20 20 20 20 20 20 19 19 19 19 19 19 19 19 19 19 18 18 18 18 18 18 18 18 18 18 17
22 22 19 20 22 23 23 24 24 24 24 24 23 21 20 20 21 22 21 21 21 20 20 20 20 20 20 19 19 19 19 19 19 19 19 19 19 18 18 18 18 18 18 18 18 18 18 17 17
22 19 19 21 22 23 24 25 25 24 24 23 22 20 19 20 21 22 21 21 21 20 20 20 20 20 20 19 19 19 19 19 19 19 19 19 18 18 18 18 18 18 18 18 18 17 17 17 17
21 18 20 22 22 23 25 25 25 24 23 23 23 20 19 19 21 21 21 20 20 20 20 20 20 20 19 19 19 19 19 19 19 19 19 19 18 18 18 18 18 18 18 18 17 17 17 17 17
23 18 21 21 22 24 25 25 25 24 24 24 23 20 19 20 20 20 20 20 20 20 20 20 20 19 19 19 19 19 19 19 19 19 19 18 18 18 18 18 18 18 18 18 17 17 17 17 17
22 18 20 21 22 24 24 24 25 25 24 23 23 23 23 20 20 19 19 19 19 19 19 20 20 19 19 19 19 19 19 19 19 19 18 18 18 18 18 18 18 18 18 17 17 17 17 17 17
21 19 21 22 23 24 24 24 24 24 23 22 22 22 22 20 19 19 19 19 19 19 19 19 19 19 19 19 19 19 19 19 18 18 18 18 18 18 18 18 18 18 18 17 17 17 17 17 17
20 20 22 23 25 24 24 24 25 24 23 23 23 21 21 20 19 19 20 20 20 20 19 19 19 19 19 19 19 19 19 18 18 18 18 18 18 18 18 18 18 18 17 17 17 17 17 17 17
21 21 23 25 25 25 24 24 24 24 25 26 25 24 21 20 19 20 20 20 20 20 20 19 19 19 19 19 19 19 19 19 19 18 18 18 18 18 18 18 18 18 18 17 17 17 17 17 17
22 23 24 25 25 25 25 24 24 24 26 26 24 22 21 21 20 20 20 20 20 20 20 20 19 19 19 19 19 19 19 19 19 18 19 18 18 18 18 18 18 18 18 17 17 17 17 17 17
23 23 24 24 25 25 24 24 23 24 25 24 23 21 21 21 20 20 20 20 20 20 20 20 20 19 19 19 19 19 19 19 19 19 19 18 18 18 18 18 18 18 18 17 17 17 17 17 17
24 23 23 23 24 24 24 24 23 25 24 23 22 21 20 20 20 21 21 21 21 21 20 20 20 19 19 19 19 19 19 19 19 18 18 18 18 18 18 18 18 18 17 17 17 17 17 17 17
23 22 22 23 23 24 24 24 24 24 23 21 21 20 20 20 20 21 21 21 21 21 20 20 20 19 19 19 19 19 19 19 18 18 18 18 18 18 18 18 18 17 17 17 17 17 17 17 17
21 21 22 23 24 24 23 23 23 23 22 21 21 21 20 20 19 20 20 20 20 20 20 20 20 19 19 19 19 19 19 18 18 18 18 18 18 18 18 18 17 17 17 17 17 17 17 17 17
21 21 22 22 23 23 23 22 22 22 22 21 21 21 20 20 20 20 20 20 20 20 20 20 19 19 19 19 19 18 18 18 18 18 18 18 18 17 17 17 17 17 17 17 17 17 17 17 17
22 22 22 22 23 23 22 22 22 21 21 21 21 21 20 21 21 20 20 20 20 20 20 20 19 19 19 18 18 18 18 18 18 18 18 18 18 18 17 17 17 17 17 17 17 17 17 17 17
22 22 22 22 23 23 22 22 22 21 21 21 21 21 21 20 20 20 20 20 20 20 20 19 19 19 19 19 19 18 18 18 18 18 17 17 17 17 17 17 17 17 17 17 17 17 17 17 17
21 21 21 22 22 22 22 22 21 21 21 21 21 21 21 21 21 21 20 20 20 20 20 20 19 19 19 18 18 18 18 17 17 17 17 17 17 17 17 17 17 17 17 17 17 17 17 17 17
21 22 22 22 21 20 22 21 21 20 20 20 20 21 21 21 21 21 21 20 20 20 20 19 19 19 18 18 18 18 18 18 18 18 18 17 17 17 17 17 17 17 17 17 17 17 17 17 17
21 23 22 22 21 20 20 20 20 19 20 20 19 20 21 21 21 21 21 21 21 20 20 19 19 19 18 18 18 18 18 18 18 18 17 17 17 17 17 17 17 17 17 17 17 17 17 17 17
23 22 20 18 18 19 20 20 20 18 19 20 19 20 20 21 21 21 21 20 20 20 19 19 19 19 18 18 18 18 18 18 17 17 17 17 17 17 17 17 17 17 17 17 17 17 17 17 17
22 19 19 19 18 18 19 19 19 19 19 19 19 19 20 20 20 20 20 20 20 20 19 19 19 18 18 18 18 18 18 17 17 17 17 17 17 17 17 17 17 17 17 17 16 16 16 16 16
20 19 19 19 19 18 19 19 19 19 19 19 19 19 19 19 20 20 20 20 20 19 19 19 18 18 18 18 18 17 17 17 17 17 17 17 17 17 17 17 17 17 17 17 16 16 16 16 16
20 19 19 17 18 19 19 19 19 19 19 19 19 19 18 19 19 20 20 20 20 19 19 19 18 18 18 18 17 17 17 17 17 17 17 17 17 17 17 17 17 17 17 17 16 16 16 16 16
20 18 17 17 18 19 20 19 19 19 19 18 18 18 18 19 19 19 20 20 20 19 19 19 18 18 18 18 18 17 17 17 17 17 17 17 17 17 17 17 17 17 17 16 16 16 16 16 16
20 19 17 16 17 18 19 19 19 18 18 18 18 18 18 19 19 19 20 19 20 19 19 19 18 18 18 18 18 17 17 17 17 17 17 17 17 17 17 17 17 17 16 16 16 16 16 16 16
21 19 17 19 18 17 18 18 19 18 17 17 18 18 19 19 19 19 19 19 19 19 19 18 18 18 18 18 17 17 17 17 17 17 17 17 17 17 17 17 17 17 16 16 16 16 16 16 16
Wind_Speed
3 3 2 2 4 5 2 2 1 0 1 1 4 4 6 4 3 3 5 13 16 15 14 18 19 18 18 18 18 18 18 19 19 19 19 18 18 18 18 18 18 18 18 18 18 18 19 18 18
3 3 2 4 5 3 3 2 1 1 2 4 5 5 5 3 4 9 8 12 17 15 14 17 19 19 18 18 18 18 18 18 18 18 18 18 18 18 18 18 18 18 18 18 18 18 18 18 18
3 1 4 4 3 3 2 1 1 2 3 3 4 4 4 4 8 8 9 17 15 12 14 18 20 19 18 18 17 17 17 17 17 17 17 17 17 17 18 18 18 17 17 17 18 18 17 17 17
3 4 5 5 0 3 3 2 2 2 2 4 4 5 4 4 7 8 16 18 16 12 13 18 21 19 18 18 17 17 17 17 17 16 16 17 17 17 17 17 17 17 17 17 17 17 16 16 15
4 4 5 3 3 3 3 3 5 3 1 2 3 4 3 4 10 17 18 17 16 12 12 17 20 19 18 18 17 16 16 16 16 16 16 16 17 17 17 17 16 16 16 16 16 16 15 14 14
4 5 4 1 4 3 3 3 5 4 2 3 4 4 3 5 13 18 16 14 13 13 10 16 20 20 19 18 17 16 16 16 15 15 16 15 16 16 16 16 16 15 16 15 15 15 14 13 13
5 5 4 2 3 3 2 2 5 5 4 4 6 5 3 7 11 15 14 13 11 10 9 10 15 17 18 18 17 16 16 15 15 15 15 15 15 15 15 15 15 15 14 14 14 13 13 12 12
5 5 2 2 3 3 1 2 2 5 4 5 6 8 7 10 14 13 13 11 10 9 8 8 10 12 13 15 17 16 16 15 15 14 14 14 14 14 14 13 13 13 13 13 13 13 12 11 11
4 4 3 5 5 3 1 2 0 2 5 4 3 5 8 19 19 17 14 11 11 11 8 8 8 9 11 12 15 15 15 15 15 14 14 12 11 11 11 12 12 12 12 11 11 11 11 10 11
5 4 7 5 5 3 2 2 4 3 4 3 4 7 18 21 20 20 19 18 16 15 11 8 8 8 9 11 11 10 11 12 11 10 11 10 10 9 10 11 11 11 11 10 10 11 10 10 9
7 7 5 6 6 3 2 3 4 7 6 9 10 17 23 22 20 19 18 17 17 15 13 10 9 8 8 6 8 7 8 9 10 10 11 10 9 7 7 7 7 8 8 8 8 8 8 8 8
5 6 6 5 3 3 4 4 4 8 9 7 14 22 25 24 22 21 20 17 15 15 14 11 10 9 7 7 7 6 6 6 7 9 11 9 6 5 5 5 6 6 6 6 6 6 7 7 7
5 5 5 6 6 5 4 6 5 7 4 9 16 21 23 22 19 16 15 15 14 15 14 13 12 11 8 6 6 7 6 7 8 9 10 10 6 4 4 4 5 6 6 5 5 5 5 5 6
5 5 6 6 5 4 5 4 4 6 7 14 18 20 20 20 19 15 15 16 16 16 15 13 13 11 9 7 6 6 7 8 8 9 10 11 8 6 4 4 4 4 5 5 5 5 4 4 4
2 2 6 5 3 3 4 3 6 5 12 14 16 17 17 16 16 17 19 17 17 16 15 14 13 11 10 8 7 7 7 8 7 8 11 11 10 8 6 4 3 4 5 6 6 5 4 4 3
1 2 3 5 1 1 6 6 6 7 13 13 14 15 15 14 16 15 14 13 13 13 14 14 14 13 11 9 7 6 7 7 7 9 10 11 11 10 7 4 4 5 5 5 4 3 3 3 3
3 1 3 5 2 1 3 6 4 7 13 13 13 14 14 12 13 13 14 14 13 13 14 14 12 13 12 9 7 6 7 6 7 9 9 11 11 11 8 5 4 6 5 3 4 2 2 3 3
4 3 2 4 2 2 2 6 5 6 11 13 13 12 12 14 15 13 14 14 13 13 13 13 12 12 11 8 6 5 5 5 6 7 9 11 12 12 9 6 5 6 4 3 3 3 3 2 3
5 3 4 5 3 1 4 6 6 5 8 10 11 12 12 13 10 10 12 14 14 14 14 15 13 12 11 9 9 8 7 6 6 6 10 12 12 12 10 6 6 6 5 5 5 3 3 2 2
4 3 4 5 2 1 2 5 5 3 7 9 12 13 13 9 9 12 13 15 16 15 15 14 14 13 12 10 9 6 6 5 6 5 8 11 12 12 11 8 7 6 5 5 5 4 3 2 2
6 6 5 4 4 3 1 5 4 2 1 3 6 8 9 11 13 13 14 15 15 15 16 15 15 13 12 9 6 5 4 3 4 5 6 8 12 12 11 10 8 7 6 6 6 6 6 4 2
6 7 7 4 1 3 2 2 6 3 2 3 5 7 9 10 10 11 13 14 15 15 14 13 13 12 11 11 10 11 9 7 8 7 6 7 9 10 11 11 10 8 6 6 6 5 4 5 4
7 4 5 3 4 0 1 2 7 2 3 5 6 7 8 9 10 11 13 13 12 12 12 12 11 12 11 12 13 12 9 7 5 5 7 7 6 8 10 10 9 8 7 7 7 6 5 4 5
6 6 7 6 5 1 3 4 6 3 5 5 5 6 7 7 7 8 9 9 9 10 11 11 12 12 13 14 13 13 12 10 9 9 9 7 5 6 7 9 8 8 7 7 7 6 7 5 5
6 6 4 3 3 6 3 3 7 6 5 5 5 4 4 6 7 8 9 11 11 12 12 12 12 12 13 14 14 13 13 12 12 11 10 9 7 6 8 8 7 7 7 8 7 7 7 7 6
8 10 8 6 6 4 1 5 6 4 3 2 1 2 4 5 6 7 8 9 9 11 11 11 12 11 11 13 12 11 11 9 9 9 9 9 8 7 8 9 9 9 9 9 8 6 7 6 6
8 6 8 7 4 1 3 4 6 2 2 1 2 4 4 5 6 6 7 8 9 10 10 11 11 10 11 12 11 10 10 10 10 9 8 7 6 7 8 9 9 9 9 9 8 6 7 7 7
8 10 7 7 7 3 2 3 4 4 3 2 1 3 4 4 4 5 6 8 8 8 8 9 9 9 9 10 11 10 10 10 9 9 10 9 8 7 9 9 9 9 9 9 8 6 6 7 6
6 6 6 6 6 7 3 6 4 6 5 4 3 3 4 4 4 3 4 5 6 6 7 7 8 8 8 9 9 9 9 9 9 9 10 10 9 9 9 9 9 9 9 9 8 8 8 8 7
6 9 9 7 5 5 5 6 3 3 3 2 2 2 3 3 3 3 3 5 5 6 6 7 7 8 8 8 8 8 8 8 9 9 9 9 9 9 9 9 9 10 9 9 10 9 9 9 9
Wind_Direction
192 156 134 90 59 49 360 297 265 329 85 123 127 128 128 126 166 167 126 139 136 143 149 145 142 136 130 126 123 122 121 122 122 122 122 122 121 120 119 117 115 114 113 112 112 112 111 110 111
137 149 89 62 76 57 319 295 337 234 140 107 90 88 84 81 83 114 134 142 140 143 145 146 145 140 134 130 128 126 125 125 125 124 124 123 123 121 120 117 116 115 114 114 114 114 114 113 114
150 133 86 70 92 161 247 295 164 100 100 99 90 78 90 123 129 138 148 143 139 141 144 151 147 143 139 135 133 131 129 128 127 127 126 126 125 123 121 119 118 117 117 116 116 116 115 115 115
112 58 58 70 155 227 218 215 179 120 56 55 98 87 74 103 141 142 142 144 141 141 147 154 149 147 143 140 137 135 133 131 129 129 129 128 128 127 124 122 120 119 118 117 118 117 117 117 116
64 79 63 35 274 257 236 209 175 157 143 86 97 95 60 36 118 134 143 147 146 145 149 155 152 150 147 144 141 139 137 135 132 131 131 129 130 130 128 125 123 121 120 119 119 118 117 117 118
61 70 84 293 282 279 246 202 156 147 131 113 105 99 68 116 132 143 146 146 147 148 148 155 154 153 152 149 147 144 140 137 135 132 131 130 131 131 128 126 125 123 122 121 120 118 117 117 117
110 105 152 211 274 291 250 159 147 146 167 167 131 113 122 146 146 143 141 140 143 146 145 149 154 156 155 153 151 149 145 143 140 137 135 134 132 130 130 129 127 126 124 123 122 119 116 118 122
126 108 138 224 226 256 233 111 142 147 163 135 133 149 170 166 147 138 135 138 143 146 146 144 148 151 154 155 156 153 150 148 145 142 140 139 136 135 133 130 129 128 128 127 126 122 117 121 126
100 86 196 219 204 230 185 91 239 131 123 130 146 162 157 147 146 143 144 147 156 158 153 147 145 146 148 153 160 158 156 154 150 149 147 139 131 131 131 135 135 133 132 130 128 123 117 118 125
110 160 221 219 202 204 223 181 182 141 148 150 109 113 134 149 155 159 163 166 170 171 167 157 152 149 150 159 157 155 154 153 147 146 138 129 128 132 135 141 138 135 133 130 127 123 116 113 118
167 196 228 239 222 202 215 221 178 157 196 201 174 151 151 160 165 170 173 175 175 172 171 166 158 154 154 151 149 148 143 143 142 140 134 133 129 129 125 126 125 122 121 113 114 110 112 117 122
186 235 228 250 202 189 200 201 192 197 217 190 162 156 161 169 175 178 177 177 174 173 175 168 164 159 157 151 151 146 143 145 144 144 143 140 133 126 125 120 116 110 111 108 106 108 112 117 126
218 256 245 243 248 224 206 208 207 235 226 137 147 159 170 176 180 181 177 174 173 176 175 172 170 169 163 153 158 158 154 156 155 153 154 154 147 141 137 131 125 123 125 121 113 113 115 114 121
227 243 276 281 265 233 200 224 185 237 156 145 157 170 178 181 180 177 177 178 180 180 177 174 175 172 165 164 164 162 163 163 162 165 166 165 160 155 149 141 135 136 138 133 126 124 123 117 120
261 286 310 292 262 232 156 260 224 202 149 158 171 176 180 184 183 187 186 183 183 181 176 176 176 172 171 169 171 167 168 168 171 174 174 174 172 167 161 153 153 155 144 131 118 109 108 114 114
55 63 304 295 292 209 146 241 249 163 159 171 178 181 184 189 191 192 186 182 180 177 175 177 182 178 176 174 169 163 170 173 175 176 179 182 180 175 166 164 169 162 147 135 122 115 108 111 120
40 145 239 296 296 116 154 245 261 170 170 180 185 188 190 189 192 192 185 182 179 178 175 177 179 178 179 174 169 166 167 174 177 178 181 184 182 179 173 173 171 159 144 139 145 123 124 135 135
203 192 232 254 294 34 260 262 270 188 185 187 188 191 192 196 198 187 181 179 176 176 175 178 179 177 175 170 165 163 167 176 178 183 186 185 183 180 176 175 169 159 146 149 142 127 100 113 133
169 177 247 257 270 298 264 273 278 204 189 191 193 195 201 205 191 173 174 173 174 178 180 181 181 179 175 177 180 181 186 182 185 191 190 188 185 180 177 177 166 167 167 164 151 129 116 107 115
191 233 267 298 339 191 276 293 288 205 201 200 198 199 202 194 176 176 174 176 181 183 184 182 185 183 183 187 184 181 171 179 189 192 188 187 186 182 184 176 175 173 163 158 159 144 133 126 134
210 208 227 254 338 7 25 324 309 308 214 195 198 200 203 195 188 184 182 182 182 185 186 188 187 186 185 179 162 151 134 134 175 191 190 189 189 187 183 181 177 175 171 176 178 162 152 152 151
230 218 205 215 116 307 53 278 285 292 283 221 215 205 203 196 188 184 182 182 185 188 184 182 182 183 182 177 178 175 182 188 196 190 188 183 186 186 185 182 180 176 176 177 182 174 164 152 160
209 190 179 177 161 227 3 178 283 336 274 254 237 219 209 198 186 182 182 182 182 178 176 176 177 180 182 184 189 185 189 190 178 170 178 183 185 188 186 183 182 180 182 182 177 170 170 165 163
162 85 61 54 86 202 229 173 271 255 244 263 252 225 204 187 175 170 169 166 171 170 172 172 178 185 186 190 191 190 188 182 175 182 188 188 187 188 188 185 185 185 184 183 182 177 175 178 167
129 106 51 19 27 242 247 187 249 259 251 242 244 228 190 168 160 160 165 171 173 175 179 177 183 190 189 191 192 194 191 187 188 189 192 187 186 192 194 189 187 187 188 186 180 178 182 180 178
170 147 158 178 203 255 273 224 256 274 275 264 205 144 140 149 153 166 175 177 178 180 179 180 188 193 190 193 194 192 188 189 193 191 188 190 192 193 188 190 191 191 188 187 181 183 186 184 188
143 172 161 131 143 138 268 282 303 323 346 19 106 127 144 158 162 172 174 175 178 180 181 184 190 195 193 193 188 189 190 191 193 189 188 190 190 189 188 192 193 192 189 184 177 184 186 182 190
146 144 113 129 147 194 278 275 256 274 282 287 173 161 164 159 166 173 176 177 177 177 177 173 184 191 191 187 187 193 193 194 191 184 188 193 193 189 185 189 191 191 189 185 182 183 185 182 187
118 113 115 121 148 151 197 262 235 225 233 230 218 179 170 173 172 181 179 168 162 161 169 175 179 181 184 188 191 190 191 190 187 190 194 193 189 188 190 190 188 190 190 187 187 191 185 188 190
151 158 146 148 178 159 160 252 291 224 231 215 206 157 148 162 173 173 165 155 162 164 170 180 180 185 188 185 186 191 188 186 191 198 197 191 189 191 192 190 190 195 194 191 192 194 192 193 195
Height
1476 1477 1477 1479 1482 1491 1492 1485 1478 1477 1475 1475 1476 1478 1481 1484 1489 1494 1490 1492 1496 1500 1504 1508 1511 1513 1515 1516 1518 1519 1521 1522 1523 1525 1526 1527 1529 1530 1532 1533 1534 1536 1537 1539 1540 1542 1543 1545 1546
1476 1477 1479 1479 1489 1501 1494 1482 1479 1476 1475 1476 1477 1479 1481 1483 1484 1486 1488 1493 1498 1501 1505 1508 1512 1514 1516 1518 1520 1521 1523 1524 1525 1527 1528 1530 1531 1533 1534 1535 1537 1538 1540 1541 1543 1544 1546 1547 1549
1476 1478 1480 1482 1491 1497 1489 1480 1477 1475 1475 1476 1478 1480 1482 1484 1484 1486 1489 1494 1499 1503 1506 1510 1513 1516 1518 1520 1522 1523 1525 1526 1528 1529 1530 1532 1534 1535 1536 1538 1540 1541 1542 1544 1545 1547 1548 1550 1552
1477 1479 1481 1488 1491 1486 1481 1477 1475 1475 1476 1477 1478 1482 1484 1486 1486 1488 1491 1495 1500 1504 1508 1511 1514 1517 1519 1522 1523 1525 1527 1528 1530 1531 1533 1534 1536 1537 1539 1540 1542 1544 1545 1547 1548 1550 1551 1553 1554
1477 1479 1486 1494 1489 1482 1476 1474 1474 1475 1476 1478 1479 1482 1485 1487 1488 1490 1493 1497 1501 1505 1509 1512 1515 1518 1521 1523 1525 1527 1529 1530 1532 1533 1535 1536 1538 1539 1541 1543 1544 1546 1548 1549 1551 1552 1554 1555 1557
1478 1480 1494 1497 1488 1479 1475 1473 1474 1476 1477 1478 1480 1483 1486 1487 1489 1492 1495 1499 1503 1506 1510 1513 1516 1519 1522 1524 1526 1528 1530 1532 1534 1535 1537 1538 1540 1541 1543 1545 1547 1548 1550 1552 1553 1555 1556 1558 1559
1478 1484 1491 1489 1487 1480 1474 1472 1473 1475 1477 1478 1479 1483 1486 1488 1490 1493 1496 1500 1504 1508 1511 1514 1517 1520 1523 1525 1528 1530 1532 1534 1536 1537 1539 1540 1542 1543 1545 1547 1549 1551 1552 1554 1556 1557 1559 1560 1562
1477 1483 1488 1489 1485 1480 1473 1472 1473 1474 1476 1478 1479 1481 1484 1486 1490 1494 1497 1501 1505 1509 1512 1515 1518 1521 1524 1526 1529 1531 1533 1535 1537 1539 1541 1543 1544 1546 1548 1549 1551 1553 1554 1556 1558 1559 1561 1562 1564
1476 1487 1492 1485 1482 1476 1472 1472 1473 1474 1475 1477 1478 1480 1481 1485 1489 1493 1497 1501 1505 1509 1512 1515 1518 1521 1524 1527 1530 1532 1534 1536 1538 1540 1542 1544 1546 1548 1550 1551 1553 1555 1556 1558 1560 1561 1563 1565 1566
1476 1488 1483 1475 1472 1471 1471 1471 1472 1473 1475 1476 1477 1479 1480 1484 1488 1491 1494 1498 1502 1506 1511 1515 1518 1521 1524 1527 1530 1532 1535 1537 1539 1541 1543 1545 1547 1549 1551 1553 1555 1556 1558 1560 1562 1563 1565 1566 1568
1473 1477 1472 1469 1468 1469 1470 1470 1471 1472 1474 1471 1472 1475 1479 1483 1487 1490 1493 1496 1500 1505 1510 1514 1518 1521 1524 1527 1530 1532 1535 1537 1540 1542 1544 1546 1548 1550 1552 1554 1556 1558 1560 1561 1563 1565 1567 1568 1570
1472 1469 1468 1466 1466 1467 1468 1468 1469 1468 1467 1467 1470 1473 1476 1480 1483 1486 1491 1495 1500 1504 1508 1513 1517 1521 1524 1527 1530 1533 1535 1538 1540 1543 1545 1547 1549 1551 1553 1555 1557 1559 1561 1563 1565 1567 1568 1570 1571
1469 1467 1465 1464 1464 1464 1465 1466 1466 1465 1465 1467 1470 1473 1475 1478 1482 1487 1491 1495 1499 1503 1507 1511 1516 1520 1523 1527 1530 1533 1536 1538 1541 1543 1546 1548 1550 1552 1554 1557 1559 1561 1563 1564 1566 1568 1570 1571 1572
1465 1464 1463 1462 1461 1461 1462 1463 1465 1462 1464 1466 1468 1471 1475 1478 1481 1485 1489 1492 1496 1501 1505 1510 1514 1518 1522 1526 1529 1533 1536 1539 1541 1544 1546 1549 1551 1553 1556 1558 1560 1562 1564 1566 1567 1569 1571 1572 1574
1463 1464 1463 1460 1459 1459 1461 1465 1462 1459 1462 1464 1467 1470 1474 1477 1481 1483 1486 1489 1494 1499 1503 1508 1513 1517 1521 1525 1529 1532 1535 1538 1541 1544 1546 1549 1551 1554 1556 1558 1561 1563 1565 1566 1568 1570 1571 1573 1574
1463 1468 1472 1462 1458 1458 1464 1470 1458 1458 1461 1463 1467 1470 1473 1475 1478 1481 1485 1489 1493 1498 1502 1507 1512 1516 1520 1524 1528 1531 1535 1538 1541 1543 1546 1549 1551 1554 1556 1559 1561 1563 1565 1567 1569 1570 1572 1573 1575
1471 1477 1474 1466 1458 1459 1463 1466 1457 1457 1459 1462 1465 1468 1470 1474 1477 1479 1483 1487 1492 1497 1501 1506 1510 1514 1518 1523 1527 1530 1534 1537 1540 1543 1546 1548 1551 1554 1556 1559 1561 1563 1565 1567 1569 1570 1572 1574 1575
1477 1475 1473 1470 1461 1460 1463 1463 1456 1457 1458 1459 1462 1465 1468 1470 1472 1476 1480 1485 1490 1495 1500 1504 1508 1512 1517 1521 1524 1528 1531 1535 1538 1541 1544 1547 1550 1553 1556 1558 1560 1563 1565 1567 1569 1570 1572 1574 1575
1466 1469 1472 1467 1459 1461 1463 1462 1456 1455 1457 1459 1461 1463 1465 1466 1470 1476 1479 1483 1487 1491 1496 1500 1504 1509 1514 1517 1521 1524 1528 1531 1535 1539 1543 1546 1549 1552 1554 1557 1559 1562 1564 1566 1568 1570 1571 1573 1575
1464 1469 1470 1464 1458 1460 1463 1461 1454 1453 1454 1455 1457 1460 1461 1465 1469 1472 1476 1479 1483 1487 1492 1496 1501 1506 1510 1514 1518 1522 1526 1529 1533 1537 1541 1544 1547 1550 1553 1555 1558 1560 1563 1565 1567 1569 1570 1572 1574
1464 1468 1467 1467 1462 1460 1463 1466 1459 1454 1454 1455 1456 1458 1460 1462 1465 1468 1472 1476 1479 1483 1488 1493 1498 1503 1508 1512 1517 1521 1524 1527 1531 1534 1537 1541 1544 1548 1551 1553 1556 1559 1561 1563 1565 1567 1569 1571 1573
1466 1457 1459 1462 1470 1477 1470 1484 1465 1459 1456 1454 1455 1456 1457 1459 1462 1465 1468 1472 1476 1480 1485 1490 1495 1500 1504 1509 1513 1516 1519 1522 1526 1530 1534 1538 1542 1545 1548 1551 1554 1556 1559 1561 1563 1565 1567 1569 1571
1455 1451 1455 1460 1469 1478 1475 1481 1473 1462 1460 1455 1453 1453 1454 1456 1459 1461 1465 1468 1473 1478 1482 1487 1492 1496 1501 1506 1509 1513 1516 1520 1523 1527 1532 1535 1539 1542 1546 1549 1551 1554 1556 1559 1561 1563 1565 1567 1569
1446 1454 1461 1470 1477 1488 1478 1481 1477 1467 1459 1453 1451 1451 1451 1454 1457 1460 1464 1468 1472 1476 1480 1484 1488 1492 1497 1501 1505 1509 1513 1516 1520 1524 1527 1531 1535 1539 1542 1545 1548 1550 1553 1556 1558 1560 1562 1564 1567
1448 1467 1485 1487 1496 1493 1476 1478 1474 1457 1452 1450 1448 1448 1450 1453 1455 1458 1462 1466 1470 1473 1477 1480 1485 1488 1492 1497 1500 1504 1508 1513 1516 1520 1524 1528 1531 1534 1538 1541 1544 1547 1550 1552 1555 1557 1559 1562 1564
1449 1459 1482 1493 1495 1489 1477 1478 1465 1452 1449 1448 1447 1448 1450 1452 1455 1458 1461 1465 1468 1471 1474 1477 1481 1485 1488 1493 1496 1500 1504 1509 1513 1516 1520 1524 1527 1531 1535 1538 1541 1543 1546 1549 1551 1554 1556 1559 1561
1449 1456 1456 1476 1482 1487 1482 1471 1458 1450 1448 1448 1448 1449 1450 1452 1454 1458 1460 1463 1467 1470 1473 1475 1478 1482 1485 1489 1493 1496 1501 1505 1508 1512 1517 1520 1524 1527 1531 1534 1537 1540 1542 1545 1547 1550 1553 1555 1557
1435 1446 1463 1476 1489 1490 1479 1475 1470 1455 1452 1449 1449 1448 1450 1452 1454 1457 1460 1462 1465 1468 1471 1473 1477 1480 1483 1486 1489 1493 1497 1501 1504 1508 1512 1516 1519 1523 1526 1530 1533 1535 1538 1541 1543 1546 1549 1551 1554
1440 1448 1457 1470 1472 1487 1489 1479 1454 1452 1449 1449 1448 1448 1450 1451 1453 1456 1459 1461 1463 1466 1470 1472 1475 1478 1481 1484 1487 1490 1494 1498 1501 1504 1508 1511 1515 1519 1522 1525 1528 1531 1534 1537 1540 1542 1545 1547 1550
1428 1438 1450 1464 1472 1475 1480 1475 1448 1447 1447 1447 1447 1448 1450 1452 1454 1457 1458 1460 1462 1465 1468 1471 1473 1476 1478 1482 1485 1488 1491 1494 1497 1500 1504 1507 1510 1514 1518 1521 1524 1527 1530 1533 1536 1538 1541 1543 1545